Moriarty, NM

10:51 AM MDT on August 18, 2017 (GMT -0600)
Moriarty

Weather History for K0E0 - January, 2013

Change the Weather History Date:

Saturday, January 19, 2013

  Actual Average (KABQ) Record (KABQ)
Temperature  
Mean Temperature 32 °F -  
Max Temperature 53 °F 47 °F 67 °F (2000)
Min Temperature 12 °F 23 °F 0 °F (1987)
Degree Days  
Heating Degree Days 32    
Moisture  
Dew Point 9 °F    
Average Humidity 48    
Maximum Humidity 84    
Minimum Humidity 15    
Precipitation  
Precipitation 0.00 in - - ()
Sea Level Pressure  
Sea Level Pressure 30.31 in    
Wind  
Wind Speed 6 mph (North)    
Max Wind Speed 14 mph    
Max Gust Speed 20 mph    
Visibility 10 miles    
Events      
Averages and records for this station are not official NWS values.
T = Trace of Precipitation, MM = Missing Value Source: NWS Daily Summary

Daily Weather History Graph

Daily Weather History Graph

Search for Another Location

Airport or City:

Trip Planner

Search our weather history database for the weather conditions in past years. The results will help you decide how hot, cold, wet, or windy it might be!

Date:

Astronomy

Jan. 19, 2013 Rise Set
Actual Time 7:10 AM MST 5:20 PM MST
Civil Twilight 6:42 AM MST 5:47 PM MST
Nautical Twilight 6:11 AM MST 6:18 PM MST
Astronomical Twilight 5:41 AM MST 6:48 PM MST
Moon 11:45 AM MST (1/19) 12:50 AM MST (1/19)
Length of Visible Light 11h 04m
Length of Day
10h 09m
First Quarter, 58% of the Moon is Illuminated
Jan 19
First Quarter
Jan 26
Full
Feb 3
Last Quarter
Feb 10
New
Feb 17
First Quarter

Hourly Weather History & Observations

Time (MST) Temp. Windchill Dew Point Humidity Pressure Visibility Wind Dir Wind Speed Gust Speed Precip Events Conditions
12:15 AM 13.3 °F - 6.1 °F 73% 30.25 in 10.0 mi Calm Calm - N/A   Clear
12:35 AM 12.9 °F 3.8 °F 6.1 °F 74% 30.25 in 10.0 mi NE 5.8 mph - N/A   Clear
12:55 AM 13.8 °F 6.2 °F 7.3 °F 75% 30.25 in 10.0 mi NE 4.6 mph - N/A   Clear
1:15 AM 16.0 °F 10.4 °F 9.3 °F 75% 30.26 in 10.0 mi NNE 3.5 mph - N/A   Clear
1:35 AM 12.2 °F -0.2 °F 6.1 °F 76% 30.26 in 10.0 mi NNE 9.2 mph - N/A   Clear
1:55 AM 15.6 °F 5.9 °F 9.7 °F 77% 30.26 in 10.0 mi North 6.9 mph - N/A   Clear
2:15 AM 18.5 °F 13.3 °F 11.3 °F 73% 30.26 in 10.0 mi North 3.5 mph - N/A   Clear
2:35 AM 20.1 °F 12.3 °F 12.2 °F 71% 30.27 in 10.0 mi North 5.8 mph - N/A   Clear
2:55 AM 20.1 °F 12.3 °F 12.7 °F 73% 30.26 in 10.0 mi North 5.8 mph - N/A   Clear
3:15 AM 16.7 °F 6.2 °F 10.4 °F 76% 30.26 in 10.0 mi NNW 8.1 mph - N/A   Clear
3:35 AM 16.9 °F 7.4 °F 11.1 °F 78% 30.26 in 10.0 mi NNW 6.9 mph - N/A   Clear
3:55 AM 17.2 °F 11.9 °F 11.5 °F 78% 30.26 in 10.0 mi NNW 3.5 mph - N/A   Clear
4:15 AM 17.1 °F 6.6 °F 11.1 °F 77% 30.25 in 10.0 mi North 8.1 mph - N/A   Clear
4:35 AM 19.2 °F 11.3 °F 13.3 °F 78% 30.26 in 10.0 mi North 5.8 mph - N/A   Clear
4:55 AM 21.6 °F 14.0 °F 14.7 °F 75% 30.26 in 10.0 mi North 5.8 mph - N/A   Clear
5:35 AM 23.0 °F 12.4 °F 15.6 °F 73% 30.28 in 10.0 mi North 10.4 mph - N/A   Clear
5:55 AM 17.6 °F 6.4 °F 12.6 °F 81% 30.27 in 10.0 mi NNW 9.2 mph - N/A   Clear
6:15 AM 17.4 °F 10.4 °F 12.7 °F 82% 30.27 in 10.0 mi North 4.6 mph - N/A   Clear
6:55 AM 13.8 °F 8.0 °F 9.7 °F 84% 30.29 in 10.0 mi NNE 3.5 mph - N/A   Clear
7:15 AM 18.5 °F 9.3 °F 12.7 °F 78% 30.29 in 10.0 mi NW 6.9 mph - N/A   Clear
7:35 AM 17.2 °F 10.2 °F 12.0 °F 80% 30.30 in 10.0 mi NW 4.6 mph - N/A   Clear
8:35 AM 28.9 °F 21.9 °F 17.6 °F 63% 30.32 in 10.0 mi NW 6.9 mph - N/A   Clear
8:55 AM 35.1 °F 27.9 °F 18.3 °F 51% 30.32 in 10.0 mi NW 9.2 mph - N/A   Clear
9:15 AM 37.2 °F 30.6 °F 17.2 °F 44% 30.33 in 10.0 mi NW 9.2 mph - N/A   Clear
9:35 AM 39.4 °F 35.2 °F 17.1 °F 41% 30.35 in 10.0 mi North 5.8 mph - N/A   Clear
10:15 AM 41.0 °F 39.0 °F 16.7 °F 37% 30.35 in 10.0 mi North 3.5 mph - N/A   Clear
10:35 AM 43.0 °F 39.5 °F 16.3 °F 34% 30.35 in 10.0 mi North 5.8 mph - N/A   Clear
10:55 AM 46.0 °F 41.4 °F 15.6 °F 30% 30.35 in 10.0 mi North 9.2 mph - N/A   Clear
11:15 AM 46.6 °F - 14.0 °F 27% 30.34 in 10.0 mi North 12.7 mph - N/A   Clear
11:35 AM 47.3 °F - 13.3 °F 25% 30.34 in 10.0 mi North 12.7 mph 19.6 mph N/A   Clear
11:55 AM 48.6 °F - 11.7 °F 23% 30.32 in 10.0 mi NNE 12.7 mph 18.4 mph N/A   Clear
12:35 PM 49.3 °F - 10.2 °F 21% 30.31 in 10.0 mi North 12.7 mph 19.6 mph N/A   Clear
12:55 PM 50.9 °F - 10.6 °F 20% 30.29 in 10.0 mi North 13.8 mph - N/A   Clear
1:15 PM 50.9 °F - 9.5 °F 19% 30.29 in 10.0 mi North 11.5 mph 19.6 mph N/A   Clear
1:35 PM 51.8 °F - 9.9 °F 19% 30.29 in 10.0 mi North 13.8 mph 18.4 mph N/A   Clear
1:55 PM 52.2 °F - 7.5 °F 17% 30.29 in 10.0 mi North 11.5 mph - N/A   Clear
2:15 PM 53.2 °F - 7.9 °F 16% 30.29 in 10.0 mi North 11.5 mph 16.1 mph N/A   Clear
2:35 PM 52.9 °F - 5.9 °F 15% 30.28 in 10.0 mi North 13.8 mph - N/A   Clear
2:55 PM 53.4 °F - 7.0 °F 15% 30.29 in 10.0 mi North 11.5 mph - N/A   Clear
3:15 PM 53.2 °F - 6.3 °F 15% 30.29 in 10.0 mi North 10.4 mph - N/A   Clear
3:35 PM 53.1 °F - 6.3 °F 15% 30.29 in 10.0 mi North 9.2 mph - N/A   Clear
3:55 PM 52.2 °F - 6.8 °F 16% 30.29 in 10.0 mi North 11.5 mph - N/A   Clear
4:15 PM 51.1 °F - 5.9 °F 16% 30.29 in 10.0 mi North 11.5 mph - N/A   Clear
4:35 PM 49.3 °F - 6.3 °F 17% 30.29 in 10.0 mi North 9.2 mph - N/A   Clear
4:55 PM 46.2 °F 42.7 °F 6.6 °F 20% 30.30 in 10.0 mi North 6.9 mph - N/A   Clear
5:15 PM 41.5 °F 37.1 °F 6.6 °F 24% 30.31 in 10.0 mi North 6.9 mph - N/A   Clear
5:35 PM 36.9 °F 32.2 °F 5.9 °F 28% 30.31 in 10.0 mi North 5.8 mph - N/A   Clear
5:55 PM 34.9 °F - 5.9 °F 30% 30.32 in 10.0 mi Calm Calm - N/A   Clear
6:15 PM 32.5 °F 28.1 °F 5.2 °F 32% 30.32 in 10.0 mi North 4.6 mph - N/A   Clear
6:35 PM 32.7 °F 28.3 °F 5.9 °F 32% 30.34 in 10.0 mi North 4.6 mph - N/A   Clear
6:55 PM 30.0 °F 25.2 °F 4.6 °F 34% 30.34 in 10.0 mi North 4.6 mph - N/A   Clear
7:15 PM 27.5 °F 22.2 °F 4.5 °F 37% 30.35 in 10.0 mi NNE 4.6 mph - N/A   Clear
7:35 PM 24.4 °F 17.5 °F 4.5 °F 42% 30.35 in 10.0 mi NE 5.8 mph - N/A   Clear
7:55 PM 22.5 °F 15.1 °F 4.3 °F 46% 30.35 in 10.0 mi NE 5.8 mph - N/A   Clear
8:15 PM 21.0 °F 14.6 °F 3.9 °F 48% 30.35 in 10.0 mi NE 4.6 mph - N/A   Clear
8:35 PM 23.4 °F - 5.5 °F 47% 30.35 in 10.0 mi Calm Calm - N/A   Clear
8:55 PM 21.0 °F - 3.9 °F 48% 30.35 in 10.0 mi Calm Calm - N/A   Clear
9:15 PM 18.9 °F 12.1 °F 3.4 °F 51% 30.35 in 10.0 mi North 4.6 mph - N/A   Clear
9:35 PM 15.1 °F 7.7 °F 1.0 °F 54% 30.35 in 10.0 mi North 4.6 mph - N/A   Clear
9:55 PM 15.6 °F 10.0 °F 1.4 °F 54% 30.36 in 10.0 mi NNE 3.5 mph - N/A   Clear
10:15 PM 13.6 °F 4.6 °F 0.3 °F 55% 30.37 in 10.0 mi North 5.8 mph - N/A   Clear
10:35 PM 15.6 °F 10.0 °F 3.6 °F 59% 30.37 in 10.0 mi North 3.5 mph - N/A   Clear
10:55 PM 13.1 °F 7.1 °F 1.6 °F 60% 30.37 in 10.0 mi NE 3.5 mph - N/A   Clear
11:15 PM 13.5 °F 7.5 °F 1.9 °F 60% 30.36 in 10.0 mi NNE 3.5 mph - N/A   Clear
11:35 PM 14.0 °F 8.2 °F 2.8 °F 61% 30.36 in 10.0 mi North 3.5 mph - N/A   Clear
11:55 PM 13.5 °F 5.8 °F 2.7 °F 62% 30.35 in 10.0 mi NE 4.6 mph - N/A   Clear